• In Uzbekistan
  • List of Countries
  • For 7 days
  • Water Temperature
  • Satellite Maps
  • Weather Map
  • Weather Widgets
  • user-avatar
    Login

    Hourly Weather Ondjiwa

    Today, 23 May, Tuesday

    Time Temperature Precipitation Wind Pressure Humidity
    00:00 +17°C° 0 mm 3 mps 668 mmHg 37%
    01:00 +16°C° 0 mm 3 mps 668 mmHg 40%
    02:00 +16°C° 0 mm 3 mps 668 mmHg 40%
    03:00 +14°C° 0 mm 3 mps 668 mmHg 41%
    04:00 +14°C° 0 mm 3 mps 668 mmHg 41%
    05:00 +14°C° 0 mm 3 mps 668 mmHg 42%
    06:00 +13°C° 0 mm 3 mps 669 mmHg 44%
    07:00 +14°C° 0 mm 3 mps 669 mmHg 45%
    08:00 +18°C° 0 mm 4 mps 670 mmHg 39%
    09:00 +22°C° 0 mm 4 mps 670 mmHg 34%
    10:00 +26°C° 0 mm 5 mps 671 mmHg 28%
    11:00 +27°C° 0 mm 4 mps 671 mmHg 25%
    12:00 +29°C° 0 mm 3 mps 670 mmHg 22%
    13:00 +30°C° 0 mm 2 mps 670 mmHg 19%
    14:00 +30°C° 0 mm 2 mps 669 mmHg 19%
    15:00 +30°C° 0 mm 1 mps 669 mmHg 19%
    16:00 +30°C° 0 mm 1 mps 668 mmHg 18%
    17:00 +27°C° 0 mm 1 mps 668 mmHg 23%
    18:00 +24°C° 0 mm 2 mps 667 mmHg 27%
    19:00 +21°C° 0 mm 2 mps 667 mmHg 32%
    20:00 +20°C° 0 mm 2 mps 667 mmHg 33%
    21:00 +20°C° 0 mm 2 mps 668 mmHg 34%
    22:00 +19°C° 0 mm 2 mps 668 mmHg 35%
    23:00 +19°C° 0 mm 2 mps 668 mmHg 36%

    Tomorrow, 24 May, Wednesday

    Time Temperature Precipitation Wind Pressure Humidity
    00:00 +18°C° 0 mm 3 mps 668 mmHg 37%
    01:00 +18°C° 0 mm 3 mps 668 mmHg 37%
    02:00 +18°C° 0 mm 2 mps 668 mmHg 38%
    03:00 +18°C° 0 mm 2 mps 668 mmHg 39%
    04:00 +18°C° 0 mm 2 mps 668 mmHg 39%
    05:00 +18°C° 0 mm 2 mps 668 mmHg 40%
    06:00 +18°C° 0 mm 2 mps 669 mmHg 41%
    07:00 +19°C° 0 mm 2 mps 669 mmHg 41%
    08:00 +21°C° 0 mm 3 mps 669 mmHg 38%
    09:00 +25°C° 0 mm 4 mps 670 mmHg 35%
    10:00 +28°C° 0 mm 5 mps 671 mmHg 32%
    11:00 +30°C° 0 mm 4 mps 670 mmHg 28%
    12:00 +32°C° 0 mm 4 mps 670 mmHg 24%
    13:00 +33°C° 0 mm 3 mps 670 mmHg 20%
    14:00 +31°C° 0 mm 3 mps 669 mmHg 22%
    15:00 +30°C° 0 mm 3 mps 668 mmHg 24%
    16:00 +29°C° 0 mm 3 mps 668 mmHg 26%
    17:00 +27°C° 0 mm 3 mps 668 mmHg 29%
    18:00 +26°C° 0 mm 3 mps 668 mmHg 32%
    19:00 +24°C° 0 mm 3 mps 668 mmHg 35%
    20:00 +22°C° 0 mm 3 mps 668 mmHg 37%
    21:00 +22°C° 0 mm 3 mps 668 mmHg 39%
    22:00 +21°C° 0 mm 3 mps 668 mmHg 40%
    23:00 +20°C° 0 mm 2 mps 668 mmHg 42%

    Day after tomorrow, 25 May, Thursday

    Time Temperature Precipitation Wind Pressure Humidity
    00:00 +19°C° 0 mm 2 mps 667 mmHg 44%
    01:00 +18°C° 0 mm 2 mps 667 mmHg 46%
    02:00 +19°C° 0 mm 1 mps 667 mmHg 48%
    03:00 +19°C° 0 mm 1 mps 667 mmHg 49%
    04:00 +18°C° 0 mm 1 mps 667 mmHg 50%
    05:00 +19°C° 0 mm 1 mps 667 mmHg 49%
    06:00 +19°C° 0 mm 1 mps 668 mmHg 48%
    07:00 +20°C° 0 mm 1 mps 668 mmHg 46%
    08:00 +21°C° 0 mm 2 mps 669 mmHg 41%
    09:00 +24°C° 0 mm 2 mps 670 mmHg 36%
    10:00 +27°C° 0 mm 3 mps 670 mmHg 31%
    11:00 +28°C° 0 mm 3 mps 670 mmHg 29%
    12:00 +30°C° 0 mm 3 mps 670 mmHg 27%
    13:00 +33°C° 0 mm 3 mps 669 mmHg 24%
    14:00 +31°C° 0 mm 3 mps 669 mmHg 25%
    15:00 +31°C° 0 mm 2 mps 668 mmHg 27%
    16:00 +30°C° 0 mm 2 mps 667 mmHg 28%
    17:00 +28°C° 0 mm 2 mps 667 mmHg 31%
    18:00 +26°C° 0 mm 2 mps 667 mmHg 34%
    19:00 +24°C° 0 mm 3 mps 667 mmHg 37%
    20:00 +24°C° 0 mm 3 mps 667 mmHg 39%
    21:00 +22°C° 0 mm 3 mps 668 mmHg 41%
    22:00 +21°C° 0 mm 3 mps 668 mmHg 43%
    23:00 +21°C° 0 mm 2 mps 668 mmHg 43%

    26 May, Friday

    Time Temperature Precipitation Wind Pressure Humidity
    00:00 +21°C° 0 mm 2 mps 668 mmHg 42%
    01:00 +21°C° 0 mm 2 mps 668 mmHg 42%
    02:00 +22°C° 0 mm 1 mps 668 mmHg 44%
    03:00 +22°C° 0 mm 1 mps 668 mmHg 45%
    04:00 +22°C° 0 mm 1 mps 667 mmHg 46%
    05:00 +22°C° 0 mm 1 mps 668 mmHg 46%
    06:00 +21°C° 0 mm 1 mps 668 mmHg 46%
    07:00 +21°C° 0 mm 1 mps 669 mmHg 46%
    08:00 +23°C° 0 mm 2 mps 669 mmHg 41%
    09:00 +25°C° 0 mm 2 mps 670 mmHg 36%
    10:00 +27°C° 0 mm 3 mps 670 mmHg 31%
    11:00 +29°C° 0 mm 2 mps 670 mmHg 28%
    12:00 +30°C° 0 mm 2 mps 669 mmHg 25%
    13:00 +32°C° 0 mm 2 mps 669 mmHg 22%
    14:00 +32°C° 0 mm 2 mps 669 mmHg 23%
    15:00 +31°C° 0 mm 2 mps 668 mmHg 24%
    16:00 +31°C° 0 mm 2 mps 668 mmHg 25%
    17:00 +29°C° 0 mm 2 mps 668 mmHg 30%
    18:00 +26°C° 0 mm 3 mps 668 mmHg 36%
    19:00 +24°C° 0 mm 3 mps 668 mmHg 41%
    20:00 +22°C° 0 mm 3 mps 668 mmHg 44%
    21:00 +21°C° 0 mm 3 mps 668 mmHg 47%
    22:00 +20°C° 0 mm 2 mps 668 mmHg 50%
    23:00 +19°C° 0 mm 2 mps 668 mmHg 52%

    27 May, Saturday

    Time Temperature Precipitation Wind Pressure Humidity
    00:00 +19°C° 0 mm 2 mps 668 mmHg 54%
    01:00 +19°C° 0 mm 1 mps 667 mmHg 57%
    02:00 +19°C° 0 mm 1 mps 667 mmHg 58%
    03:00 +18°C° 0 mm 1 mps 667 mmHg 59%
    04:00 +18°C° 0 mm 1 mps 667 mmHg 60%
    05:00 +19°C° 0 mm 1 mps 668 mmHg 60%
    06:00 +19°C° 0 mm 1 mps 668 mmHg 59%
    07:00 +19°C° 0 mm 1 mps 669 mmHg 59%
    08:00 +23°C° 0 mm 1 mps 670 mmHg 49%
    09:00 +26°C° 0 mm 1 mps 671 mmHg 39%
    10:00 +30°C° 0 mm 1 mps 672 mmHg 29%
    11:00 +31°C° 0 mm 1 mps 671 mmHg 25%
    12:00 +32°C° 0 mm 1 mps 671 mmHg 22%
    13:00 +33°C° 0 mm 1 mps 670 mmHg 19%
    14:00 +33°C° 0 mm 1 mps 670 mmHg 19%
    15:00 +33°C° 0 mm 1 mps 669 mmHg 19%
    16:00 +32°C° 0 mm 1 mps 669 mmHg 18%
    17:00 +29°C° 0 mm 1 mps 669 mmHg 23%
    18:00 +27°C° 0 mm 2 mps 669 mmHg 27%
    19:00 +24°C° 0 mm 2 mps 668 mmHg 31%
    20:00 +23°C° 0 mm 2 mps 669 mmHg 32%
    21:00 +23°C° 0 mm 2 mps 669 mmHg 33%
    22:00 +21°C° 0 mm 2 mps 669 mmHg 34%
    23:00 +20°C° 0 mm 2 mps 669 mmHg 35%

    28 May, Sunday

    Time Temperature Precipitation Wind Pressure Humidity
    00:00 +20°C° 0 mm 2 mps 669 mmHg 36%
    01:00 +19°C° 0 mm 2 mps 669 mmHg 37%
    02:00 +19°C° 0 mm 2 mps 668 mmHg 40%
    03:00 +18°C° 0 mm 2 mps 668 mmHg 42%
    04:00 +17°C° 0 mm 2 mps 668 mmHg 44%
    05:00 +17°C° 0 mm 2 mps 669 mmHg 46%
    06:00 +17°C° 0 mm 2 mps 669 mmHg 48%
    07:00 +17°C° 0 mm 2 mps 670 mmHg 49%
    08:00 +21°C° 0 mm 2 mps 671 mmHg 42%
    09:00 +26°C° 0 mm 3 mps 672 mmHg 35%
    10:00 +29°C° 0 mm 3 mps 672 mmHg 27%
    11:00 +30°C° 0 mm 3 mps 672 mmHg 24%
    12:00 +33°C° 0 mm 3 mps 671 mmHg 21%
    13:00 +34°C° 0 mm 3 mps 671 mmHg 18%
    14:00 +34°C° 0 mm 3 mps 670 mmHg 18%
    15:00 +34°C° 0 mm 3 mps 670 mmHg 17%
    16:00 +33°C° 0 mm 3 mps 670 mmHg 17%
    17:00 +30°C° 0 mm 3 mps 670 mmHg 20%
    18:00 +27°C° 0 mm 3 mps 670 mmHg 24%
    19:00 +24°C° 0 mm 3 mps 670 mmHg 28%
    20:00 +22°C° 0 mm 3 mps 670 mmHg 29%
    21:00 +21°C° 0 mm 3 mps 670 mmHg 30%
    22:00 +20°C° 0 mm 3 mps 670 mmHg 31%
    23:00 +20°C° 0 mm 3 mps 670 mmHg 32%
    Show more